Weather History for Fort Myers Airport, FL

Change the Weather History Date:

Saturday, March 23, 2013

  Actual Average Record
Temperature  
Mean Temperature 78 °F -  
Max Temperature 87 °F 78 °F 88 °F (1949)
Min Temperature 70 °F 58 °F 44 °F (1945)
Cooling Degree Days 13    
Growing Degree Days 28 (Base 50)    
Moisture  
Dew Point 68 °F    
Average Humidity 82    
Maximum Humidity 97    
Minimum Humidity 49    
Precipitation  
Precipitation 0.23 in - - ()
Sea Level Pressure  
Sea Level Pressure 29.91 in    
Wind  
Wind Speed 8 mph (South)    
Max Wind Speed 22 mph    
Max Gust Speed 32 mph    
Visibility 9 miles    
Events Rain , Thunderstorm    
Averages and records for this station are not official NWS values.
T = Trace of Precipitation, MM = Missing Value Source: NWS Daily Summary

Daily Weather History Graph

Daily Weather History Graph

Search for Another Location

Airport:

Trip Planner

Search our weather history database for the weather conditions in past years. The results will help you decide how hot, cold, wet, or windy it might be!

Date:

Astronomy

Mar. 23, 2013 Rise Set
Actual Time 7:27 AM EDT 7:39 PM EDT
Civil Twilight 7:04 AM EDT 8:03 PM EDT
Nautical Twilight 6:37 AM EDT 8:30 PM EDT
Astronomical Twilight 6:10 AM EDT 8:57 PM EDT
Moon 4:22 PM EDT (3/23) 4:43 AM EDT (3/23)
Length of Visible Light 12h 58m
Length of Day
12h 12m
Waxing Gibbous, 85% of the Moon is Illuminated
Mar 23
Waxing Gibbous
Mar 27
Full
Apr 3
Last Quarter
Apr 10
New
Apr 18
First Quarter

Hourly Weather History & Observations

Time (EDT) Temp. Heat Index Dew Point Humidity Pressure Visibility Wind Dir Wind Speed Gust Speed Precip Events Conditions
12:16 AM 73.4 °F - 69.8 °F 88% 29.95 in 10.0 mi SSE 11.5 mph - N/A Thunderstorm Thunderstorm
12:49 AM 73.4 °F - 69.8 °F 88% 29.96 in 10.0 mi SW 5.8 mph - 0.00 in Rain , Thunderstorm Light Rain
12:53 AM 73.0 °F - 69.1 °F 87% 29.96 in 10.0 mi WNW 5.8 mph - 0.00 in Thunderstorm Overcast
1:20 AM 73.4 °F - 69.8 °F 88% 29.98 in 10.0 mi North 4.6 mph - 0.11 in Rain , Thunderstorm Light Rain
1:35 AM 71.6 °F - 69.8 °F 94% 29.98 in 8.0 mi Calm Calm - 0.16 in Rain Light Rain
1:43 AM 71.6 °F - 69.8 °F 94% 29.98 in 10.0 mi NE 4.6 mph - 0.16 in Rain Light Rain
1:53 AM 71.1 °F - 69.1 °F 93% 29.97 in 10.0 mi ENE 6.9 mph - 0.16 in Rain Light Rain
2:07 AM 71.6 °F - 69.8 °F 94% 29.97 in 10.0 mi NE 4.6 mph - 0.00 in Rain Light Rain
2:53 AM 70.0 °F - 68.0 °F 93% 29.95 in 10.0 mi East 8.1 mph - 0.05 in Rain Light Rain
3:53 AM 71.1 °F - 69.1 °F 93% 29.93 in 10.0 mi ESE 5.8 mph - 0.01 in   Overcast
4:46 AM 71.6 °F - 69.8 °F 94% 29.93 in 9.0 mi East 4.6 mph - 0.01 in   Overcast
4:53 AM 71.1 °F - 69.1 °F 93% 29.92 in 9.0 mi East 3.5 mph - 0.01 in   Overcast
5:03 AM 71.6 °F - 69.8 °F 94% 29.92 in 9.0 mi East 4.6 mph - N/A   Overcast
5:11 AM 71.6 °F - 69.8 °F 94% 29.92 in 9.0 mi East 4.6 mph - N/A   Overcast
5:51 AM 71.6 °F - 69.8 °F 94% 29.92 in 8.0 mi SE 4.6 mph - N/A   Overcast
5:53 AM 71.1 °F - 70.0 °F 96% 29.91 in 8.0 mi SE 4.6 mph - N/A   Overcast
6:04 AM 71.6 °F - 69.8 °F 94% 29.92 in 7.0 mi South 5.8 mph - N/A   Mostly Cloudy
6:23 AM 71.6 °F - 69.8 °F 94% 29.91 in 7.0 mi South 8.1 mph - N/A   Mostly Cloudy
6:53 AM 72.0 °F - 70.0 °F 93% 29.92 in 6.0 mi SSE 6.9 mph - N/A   Mostly Cloudy
7:53 AM 72.0 °F - 71.1 °F 97% 29.94 in 6.0 mi South 8.1 mph - N/A   Mostly Cloudy
8:34 AM 73.4 °F - 71.6 °F 94% 29.94 in 6.0 mi South 8.1 mph - N/A   Scattered Clouds
8:53 AM 73.9 °F - 71.1 °F 91% 29.94 in 7.0 mi South 6.9 mph - N/A   Partly Cloudy
9:53 AM 78.1 °F - 71.1 °F 79% 29.94 in 10.0 mi SSW 10.4 mph - N/A   Clear
10:53 AM 81.0 °F 84.4 °F 70.0 °F 69% 29.94 in 10.0 mi South 11.5 mph - N/A   Scattered Clouds
11:53 AM 82.9 °F 85.8 °F 68.0 °F 60% 29.92 in 10.0 mi SW 15.0 mph - N/A   Partly Cloudy
12:53 PM 84.0 °F 86.5 °F 66.9 °F 56% 29.90 in 10.0 mi SSW 17.3 mph - N/A   Clear
1:53 PM 86.0 °F 87.6 °F 64.9 °F 49% 29.88 in 10.0 mi SSW 21.9 mph - N/A   Clear
2:53 PM 84.0 °F 86.3 °F 66.0 °F 55% 29.87 in 10.0 mi SW 20.7 mph 28.8 mph N/A   Clear
3:53 PM 84.0 °F 85.8 °F 64.9 °F 53% 29.85 in 10.0 mi SW 20.7 mph 32.2 mph N/A   Clear
4:53 PM 82.9 °F 84.4 °F 64.0 °F 53% 29.83 in 10.0 mi SW 21.9 mph 28.8 mph N/A   Clear
5:53 PM 82.0 °F 84.1 °F 66.0 °F 58% 29.83 in 10.0 mi SW 17.3 mph 25.3 mph N/A   Clear
6:53 PM 80.1 °F 82.1 °F 66.0 °F 62% 29.83 in 10.0 mi SW 15.0 mph 23.0 mph N/A   Clear
7:53 PM 75.9 °F - 66.0 °F 71% 29.84 in 10.0 mi SW 9.2 mph - N/A   Clear
8:53 PM 73.9 °F - 66.0 °F 76% 29.85 in 10.0 mi SSW 5.8 mph - N/A   Clear
9:53 PM 73.9 °F - 64.9 °F 73% 29.87 in 10.0 mi SSW 4.6 mph - N/A   Clear
10:53 PM 72.0 °F - 66.0 °F 81% 29.88 in 10.0 mi South 3.5 mph - N/A   Clear
11:53 PM 71.1 °F - 64.9 °F 81% 29.87 in 10.0 mi SSE 4.6 mph - N/A   Partly Cloudy